Location: Berg
(47.2344°N, 9.5296°E)
Time: 16:47:26
(UTC+00:00)

Cosmos 158 Rocket - Pass Details

Date: 24 January 2021
Orbit: 698 x 794 km, 74.0° (Epoch: 28 February)

Event Time Altitude Azimuth Distance (km) Brightness Sun altitude
Rises 17:01:29 0° 339° (NNW) 3,269 7.3 -8.5°
Reaches altitude 10° 17:03:54 10° 343° (NNW) 2,348 6.5 -8.9°
Maximum altitude 17:09:14 65° 65° (ENE) 867 4.0 -9.8°
Drops below altitude 10° 17:14:35 10° 148° (SSE) 2,357 6.4 -10.6°
Sets 17:17:00 0° 151° (SSE) 3,282 7.1 -11.0°
